Location: Rounton
(54.4000°N, 1.3500°W)
Time: 13:51:16
(UTC+00:00)

Transit 2A Rocket - Pass Details

Date: 08 December 2021
Orbit: 584 x 918 km, 66.7° (Epoch: 17 January)

Event Time Altitude Azimuth Distance (km) Brightness Sun altitude
Rises 12:06:41 0° 305° (NW) 3,548 8.1 12.8°
Reaches altitude 10° 12:09:34 10° 316° (NW) 2,619 7.4 12.8°
Maximum altitude 12:14:52 29° 16° (NNE) 1,614 6.3 12.7°
Drops below altitude 10° 12:20:06 10° 75° (ENE) 2,579 7.6 12.7°
Sets 12:22:55 0° 87° (E) 3,485 8.3 12.6°
